Weather in Vas'kovo

Russia / Smolensk Oblast     54°16′13″N   32°33′32″E
temp.,
°C
wind,
m/s
gust,
m/s
humid.,
%
clouds,
%
prec.,
mm/h
press.,
hPa
HPBL,
m
28 september, tue
tue2800:00+6n359416 0.0 1027114
03:00+7n3593100 0.0 1027168
06:00+7nne4893100 0.0 1027340
09:00+8ne588637 0.1 1028581
12:00+9ene4677100 0.1 1029739
15:00+9ene4577100 0.3 1030737
18:00+8ene3782100 0.1 1032459
21:00+7e4981100 0.1 1033419
29 september, wed
wed2900:00+7e378051 0.0 1034377
03:00+3e36925 0.0 1035103
06:00+2e36935 0.0 1036108
09:00+5e35755 0.0 1036233
12:00+9ese345617 0.0 1036970
15:00+11ese33497 0.0 10351092
18:00+8ese226525 0.0 103510
21:00+5ese227363 0.0 103510
30 september, thu
thu3000:00+4ese127976 0.0 103610
03:00+3ese118349 0.0 103610
06:00+3e118545 0.0 103610
09:00+6ese2273100 0.0 1036132
12:00+11se235782 0.0 1035629
15:00+12sse225166 0.0 1035958
18:00+9se226723 0.0 103410
21:00+6sse227843 0.0 103513
1 october, fri
fri100:00+5sse228562 0.0 103615
03:00+4sse228945 0.0 103613
06:00+4sse229162 0.0 103615
09:00+7sse238178 0.0 1036157
12:00+12s336438 0.0 1035700
15:00+13s235934 0.0 10341039
18:00+10s227520 0.0 103415
21:00+7s228734 0.0 103418
2 october, sat
sat200:00+6s339185 0.0 103430
03:00+5sse339217 0.0 103432
06:00+4sse33925 0.0 103431
09:00+7sse35825 0.0 1033178
12:00+12s45615 0.0 1033733
15:00+14s45542 0.0 10311107
18:00+10sse34725 0.0 103154
21:00+8sse36835 0.0 103197